Theta_e
289 289 288 288 287 287 286 285 284 283 282 281 280 279 278 277 276 275 275 274 274 273 273 273 273 273 273 273 273 272 272 272 272 272 272 272 272 272 272 272 272 272 272 273 273 273 273 273 273 273 273 273 273 273 273 273 273 273 273 273 273 273 273 274 273 273 273 274 274 275 275 275 276 276 277 278 279 281 281 281 281 281 282 282 283
288 288 288 288 287 287 286 285 284 283 282 281 279 278 277 276 276 275 274 274 274 273 273 273 273 272 272 272 272 272 272 272 272 272 272 272 272 272 271 272 272 272 272 272 273 273 273 273 273 273 273 273 273 273 273 273 273 273 273 273 273 273 273 273 273 273 273 273 274 274 275 275 276 276 276 277 278 279 280 280 280 281 281 281 281
288 287 287 288 287 287 286 285 284 282 281 280 279 278 277 276 275 274 274 274 273 273 273 273 273 272 272 272 272 272 272 271 271 271 271 271 271 271 271 271 271 271 272 272 273 273 273 273 273 273 272 273 273 272 273 273 273 273 273 273 273 273 273 273 273 273 273 273 273 273 274 275 275 276 276 276 277 278 279 280 280 281 280 280 280
287 287 287 287 287 287 286 285 283 281 281 280 279 277 276 275 275 274 274 273 273 273 273 272 272 272 272 272 272 271 271 271 271 271 271 271 271 271 271 271 271 271 271 272 272 273 273 273 272 272 272 272 272 272 272 273 273 273 273 273 272 273 273 273 272 272 272 273 273 273 273 274 275 275 276 275 276 277 279 280 280 281 281 280 280
287 287 287 287 287 287 286 284 282 281 280 279 278 277 276 275 274 274 273 273 273 272 272 272 272 272 272 271 271 271 271 271 271 271 271 271 270 270 270 270 270 270 271 271 272 272 273 273 272 272 272 272 272 272 272 272 272 272 272 272 272 272 272 272 272 272 272 272 272 272 273 273 274 275 275 275 276 277 278 280 280 280 280 280 281
287 287 287 287 287 286 285 283 281 280 279 278 278 277 275 274 274 273 273 273 272 272 272 272 272 271 271 271 271 271 270 270 270 270 270 270 270 270 270 270 270 270 270 271 271 272 272 272 272 272 272 271 272 272 272 272 271 271 271 272 272 272 272 272 272 272 272 272 272 272 272 273 273 274 275 275 276 277 278 279 280 280 280 280 280
286 287 287 287 286 285 284 283 281 279 278 277 277 276 275 274 273 273 273 272 272 272 272 272 271 271 271 271 271 270 270 270 270 270 270 270 270 270 270 269 269 269 270 270 271 271 272 272 272 272 271 271 271 271 271 271 271 271 271 271 271 272 272 272 272 272 272 272 272 272 272 272 273 274 275 275 276 276 277 278 280 280 280 280 280
286 286 286 286 285 284 283 282 281 279 278 276 276 275 274 273 273 273 272 272 272 272 272 272 271 271 271 270 270 270 270 270 269 269 269 269 269 269 269 269 269 269 269 270 270 270 271 271 271 271 271 271 271 271 271 271 271 271 271 271 271 271 271 271 272 272 272 272 272 272 272 272 273 273 274 275 275 276 276 278 279 280 280 280 280
285 285 285 285 284 283 282 281 281 279 278 276 275 275 274 273 273 272 272 272 272 272 271 271 271 271 270 270 270 270 269 269 269 269 269 269 269 269 269 268 268 269 269 269 269 270 270 270 270 270 270 270 270 270 270 271 271 271 271 271 271 271 271 271 272 272 272 272 272 272 272 272 273 273 274 275 275 276 277 278 279 280 280 280 280
284 284 283 283 282 282 281 281 280 279 278 276 275 274 274 273 272 272 272 272 272 271 271 271 271 270 270 270 269 269 269 269 269 269 269 269 268 268 268 268 268 268 268 269 269 269 269 269 269 270 270 270 270 270 271 271 271 271 271 271 271 271 271 271 271 272 272 272 272 272 272 272 273 273 273 274 275 276 277 278 278 279 280 280 280
282 282 281 281 281 281 281 280 280 279 277 276 275 274 273 273 272 272 272 271 271 271 270 270 270 270 269 269 269 269 269 269 269 269 269 269 269 267 267 267 267 268 268 268 269 269 269 269 269 269 269 269 270 270 271 271 272 272 272 272 272 271 271 271 271 271 272 272 272 272 272 272 272 273 273 274 275 275 276 277 278 279 279 279 280
280 281 281 281 280 280 280 280 279 278 277 276 275 274 273 272 272 272 271 271 271 270 270 270 269 269 269 269 268 268 268 268 269 269 269 270 270 268 267 267 267 267 267 268 268 268 269 269 269 269 269 269 270 270 271 272 273 273 273 273 273 272 272 271 271 271 272 272 272 272 272 272 272 272 273 273 274 275 276 276 277 278 278 279 279
280 280 279 279 279 279 279 279 278 277 276 275 274 274 273 272 271 271 271 271 270 270 270 269 269 269 268 268 268 268 268 268 269 269 269 269 270 270 268 267 267 267 267 267 268 268 269 269 270 270 270 270 270 271 271 272 273 274 274 274 274 274 273 273 272 272 272 272 272 272 272 272 272 272 272 272 273 274 275 275 276 277 277 278 278
278 278 278 278 278 278 278 277 276 275 275 275 274 273 273 272 271 271 270 270 270 270 269 269 269 268 268 267 267 267 267 267 268 269 269 269 270 270 270 269 268 267 268 268 268 268 269 269 270 271 271 271 271 272 272 273 274 274 274 275 275 275 274 274 274 273 273 272 272 272 272 272 272 272 272 272 272 273 274 274 275 275 275 276 276
276 277 277 276 276 276 275 275 275 274 274 274 274 273 272 272 271 270 270 270 269 269 269 269 268 268 267 267 267 266 266 266 267 268 268 269 269 269 270 269 269 268 268 268 269 269 269 270 270 271 272 272 273 273 273 274 275 274 274 274 275 275 275 275 275 274 274 273 273 272 272 272 272 272 272 272 272 272 272 273 273 273 274 274 274
276 275 275 274 273 273 273 273 273 273 273 273 273 273 272 272 271 270 270 269 269 269 269 268 268 267 267 266 266 266 265 266 267 268 268 268 269 269 269 269 269 269 269 269 269 270 270 270 271 271 272 273 274 275 275 275 275 274 274 274 274 274 275 275 275 275 275 274 274 273 273 273 273 273 272 272 272 272 272 272 272 272 273 273 274
274 273 272 272 271 271 271 271 272 272 272 272 272 273 272 271 271 270 269 269 269 269 268 268 268 267 267 266 265 265 265 265 266 267 268 268 269 269 269 269 269 270 270 270 270 270 271 271 272 272 273 274 275 276 276 276 275 274 273 274 274 274 274 274 275 275 275 275 275 275 274 274 274 274 274 273 273 272 272 272 272 273 273 273 274
271 271 270 270 270 270 270 270 271 271 271 271 272 272 272 271 270 270 269 269 269 268 268 267 267 266 266 265 265 265 264 265 265 266 267 268 268 268 269 269 269 269 270 270 270 271 271 272 272 273 273 274 275 276 277 277 276 275 274 274 273 273 273 273 274 275 275 275 276 276 275 275 275 275 275 275 274 274 273 273 273 273 274 274 274
269 268 268 268 268 268 269 269 270 270 270 271 271 272 272 271 270 269 269 268 268 268 267 267 266 266 266 265 265 265 264 264 265 266 267 267 268 268 268 269 269 269 270 270 270 271 271 272 273 273 274 274 275 276 277 277 276 276 275 274 274 274 274 274 274 274 275 275 275 275 275 276 276 276 275 275 275 275 274 273 273 274 274 274 275
266 266 267 267 267 267 268 268 269 269 269 270 271 272 271 270 270 269 268 268 268 268 267 267 266 266 265 265 264 264 264 264 264 265 266 267 268 268 268 269 269 269 270 271 271 272 272 272 273 274 274 275 276 276 277 277 277 277 276 275 275 275 275 275 274 275 275 275 275 275 275 275 275 275 275 275 275 275 275 275 274 274 274 275 275
265 265 265 265 265 266 266 267 267 267 268 269 270 271 271 270 269 269 268 268 267 267 267 266 265 265 265 265 264 264 264 263 263 264 265 267 268 269 269 269 269 270 271 271 272 272 273 273 274 275 275 276 276 276 277 277 277 277 277 276 276 276 276 275 275 275 275 275 275 275 274 274 274 274 275 275 275 276 276 276 275 275 275 275 275
264 264 264 264 264 265 265 265 266 266 267 269 270 270 270 269 269 268 268 267 267 266 266 266 265 265 264 264 264 263 263 263 263 264 265 266 268 269 270 270 270 270 271 272 273 273 274 275 275 275 275 276 276 276 277 277 277 277 277 277 277 277 277 276 276 276 275 275 275 275 275 274 274 275 275 275 275 275 276 276 276 276 275 275 275
263 263 263 263 263 264 264 265 265 266 267 269 269 269 269 269 268 267 267 267 266 265 265 265 264 264 264 264 264 263 263 263 263 264 264 266 267 269 270 271 271 271 272 273 273 274 274 275 275 275 275 275 276 276 276 276 276 276 276 276 277 277 277 277 277 277 276 276 275 275 275 275 275 275 275 275 275 275 275 276 276 276 276 276 276
262 262 262 262 262 263 263 264 264 266 267 268 268 268 268 267 267 266 266 266 265 265 265 264 264 264 264 264 264 264 264 264 264 264 265 266 267 269 270 271 272 272 272 273 274 274 274 274 274 274 275 275 275 275 275 276 276 276 276 276 276 277 277 277 277 277 277 277 276 276 276 276 276 276 276 276 276 276 276 276 276 276 276 276 276
261 261 261 261 262 262 263 263 264 266 268 268 268 268 267 267 266 266 265 265 265 265 265 264 264 264 264 264 264 265 265 265 265 266 266 267 268 269 270 271 272 273 273 273 274 274 274 274 274 274 274 274 274 275 275 275 276 275 276 276 275 275 276 276 276 276 277 277 277 277 277 277 276 276 276 276 276 276 276 276 276 276 276 276 276
260 260 260 260 261 261 262 264 265 266 267 268 267 267 267 266 266 266 265 265 265 265 265 264 264 264 264 265 265 265 266 266 267 267 268 268 269 270 271 272 272 273 273 273 274 274 274 274 274 274 274 274 274 275 275 274 274 274 274 274 274 274 274 274 274 275 276 276 276 277 277 277 277 277 277 276 277 276 276 276 276 276 276 276 276
259 260 260 260 261 262 263 264 265 266 267 267 267 267 266 266 266 265 265 265 265 264 264 264 264 264 265 265 265 266 267 267 268 268 269 269 270 270 271 271 271 272 272 273 273 273 273 273 273 274 274 274 274 274 273 273 273 273 273 272 272 272 273 273 274 274 274 275 275 276 276 277 277 277 277 277 277 277 276 276 276 276 275 275 275
259 259 259 260 261 262 263 264 265 266 267 267 266 266 266 266 265 265 265 265 264 264 264 264 264 264 265 265 266 267 267 268 269 269 270 270 270 270 270 270 271 271 271 272 272 272 273 273 273 273 272 272 272 272 272 271 271 271 271 271 271 271 272 272 272 273 273 273 274 274 275 275 276 276 277 277 277 277 277 276 276 276 276 275 275
258 259 260 261 261 262 263 264 264 266 267 267 266 266 265 265 265 265 265 264 264 264 264 264 264 264 265 265 266 268 269 269 269 270 270 270 270 270 270 270 271 271 271 272 272 272 272 272 272 272 271 271 271 271 271 271 270 270 270 270 270 270 271 271 271 272 272 273 273 274 274 275 275 275 276 276 276 277 277 277 276 276 276 276 275
258 259 260 260 261 262 263 264 264 266 266 266 266 265 265 265 265 264 264 264 264 264 265 265 265 264 265 265 266 268 269 270 270 270 270 270 270 270 270 271 271 271 271 272 272 272 272 271 271 271 271 271 271 271 271 271 270 270 269 269 269 269 270 270 271 271 272 272 272 273 273 274 274 274 275 275 276 276 277 277 277 276 276 276 276
258 259 259 260 261 262 263 263 264 265 266 265 265 265 264 264 264 265 265 265 264 264 265 266 266 266 265 265 266 267 268 269 270 270 270 270 271 271 271 271 272 272 272 272 272 272 271 271 271 270 270 270 270 270 270 269 268 268 268 268 268 268 269 269 269 269 270 270 270 271 272 272 273 274 274 275 275 276 276 277 277 277 276 276 276
258 259 259 260 261 262 262 263 264 265 265 265 265 264 264 264 264 265 265 266 266 266 266 267 267 267 267 267 267 267 268 269 270 270 270 271 271 271 272 272 272 272 272 272 271 271 271 271 270 270 269 269 269 268 267 266 266 266 266 266 267 267 267 267 267 267 267 268 269 270 271 272 272 273 274 274 275 275 275 276 277 277 277 276 276
258 258 259 260 261 262 262 263 264 265 265 264 264 264 264 264 264 265 265 266 266 267 267 268 268 268 268 269 269 268 269 269 270 270 271 271 271 271 271 271 271 271 270 270 270 270 269 269 269 268 267 267 267 266 266 265 265 264 264 265 266 266 266 265 265 265 266 266 268 269 270 270 271 272 272 273 274 274 274 275 276 277 277 277 277
258 258 259 260 261 261 262 262 263 264 264 264 264 263 263 263 263 264 264 265 266 267 267 268 268 268 269 269 270 270 270 270 270 270 271 271 271 270 270 270 269 269 269 268 268 268 268 267 267 266 265 265 265 265 265 264 263 264 264 264 264 264 264 263 264 264 265 266 267 268 268 269 269 270 271 271 272 273 273 274 275 276 276 277 277
258 259 260 260 260 261 261 262 262 263 263 263 263 263 263 263 263 263 264 264 265 266 267 267 268 268 268 269 270 270 270 270 270 270 270 270 269 269 269 269 269 268 267 266 266 266 266 265 265 264 264 264 264 264 264 263 262 263 263 263 263 263 262 263 264 264 264 265 266 266 266 267 267 268 268 269 270 271 272 273 274 275 275 276 277
258 259 260 260 260 260 261 261 262 262 262 262 262 262 262 262 262 262 263 263 264 265 266 267 267 267 267 268 268 269 269 269 269 269 269 268 268 268 267 267 267 267 266 265 264 264 264 264 264 264 264 263 262 262 262 262 261 261 261 261 262 262 262 263 263 263 263 263 264 264 264 264 265 266 266 267 268 269 270 271 272 273 274 275 276
258 259 259 260 260 260 261 261 261 261 261 261 261 261 262 262 262 262 262 263 264 264 265 265 266 266 266 267 267 267 268 268 268 268 267 267 267 266 265 265 265 265 264 263 263 263 263 263 262 262 262 261 261 261 261 261 260 260 260 260 260 261 261 261 262 261 262 262 263 263 262 262 263 264 265 266 267 268 269 270 271 271 272 273 274
258 259 259 259 260 260 260 261 261 261 261 261 261 261 261 261 262 262 262 263 263 264 264 265 265 266 266 265 265 266 266 266 266 266 266 265 265 265 264 263 263 263 263 262 262 262 262 261 261 260 260 260 260 260 260 260 260 260 260 260 260 260 261 261 261 261 261 261 262 262 262 262 262 263 263 264 266 267 268 269 269 270 271 272 272
258 258 259 259 260 260 260 260 261 261 261 261 261 261 261 261 261 262 262 262 263 263 264 264 264 265 265 264 264 264 265 265 266 265 264 264 264 263 263 262 261 261 261 261 260 260 260 260 259 259 259 259 259 259 260 260 260 260 260 260 261 261 261 261 260 261 261 261 261 261 261 261 262 262 262 263 264 265 266 267 267 268 269 270 271
258 258 259 259 259 260 260 260 260 260 260 260 260 261 261 261 261 261 262 262 262 263 263 263 264 264 263 263 263 263 264 265 265 264 263 262 262 262 262 261 260 260 260 259 259 259 260 259 259 259 259 259 259 259 259 259 259 259 260 260 261 260 260 260 260 260 260 260 260 260 260 261 261 261 262 262 263 264 265 265 266 267 268 269 269
257 258 259 259 259 260 260 260 260 260 260 261 260 260 261 261 261 261 261 261 262 262 262 263 263 262 262 262 263 263 263 263 263 262 262 261 261 261 260 260 259 259 259 259 259 259 259 259 259 259 258 258 258 258 258 259 259 259 259 259 260 260 260 260 259 260 260 260 260 260 260 260 260 261 262 262 263 263 264 264 265 266 267 267 268
257 258 259 259 259 259 260 260 260 260 260 260 260 260 260 260 260 261 261 261 261 262 262 262 262 262 262 262 263 263 263 262 262 261 260 260 260 260 259 259 259 258 258 258 258 258 258 258 258 258 258 258 258 258 258 258 259 259 259 259 259 259 260 259 259 259 260 259 259 260 260 260 260 260 261 262 262 262 263 264 264 265 266 267 268
257 258 258 258 259 259 259 259 260 260 260 260 260 260 261 260 261 261 261 261 261 261 261 262 262 262 261 261 262 262 262 262 261 260 260 259 259 259 259 258 258 258 258 258 258 258 258 258 258 258 258 258 258 258 258 258 258 258 258 258 258 258 258 258 258 259 259 259 259 259 260 260 260 260 261 261 261 262 262 263 264 264 265 266 267
257 258 258 258 258 259 259 259 259 259 260 260 260 260 260 261 261 261 261 261 261 261 261 261 262 261 261 261 261 261 261 261 260 260 259 259 259 258 258 258 258 258 258 258 258 258 258 258 257 258 258 258 258 258 258 258 258 258 258 258 258 258 258 258 258 259 259 259 259 259 259 259 260 260 261 261 261 261 262 263 263 264 265 265 266
257 257 257 258 258 258 258 259 259 259 259 259 260 260 260 260 260 260 260 260 260 260 261 261 261 261 261 261 261 261 260 260 260 260 259 259 259 258 258 258 258 258 258 258 258 258 258 258 258 258 258 258 258 258 258 258 258 258 258 258 257 257 257 258 258 258 259 259 259 259 259 259 259 260 260 261 261 261 262 263 263 263 264 264 265
256 257 257 257 257 258 258 258 258 258 259 259 259 259 260 260 260 260 260 260 260 260 260 261 261 261 261 261 261 260 260 260 260 259 259 259 258 258 258 258 258 258 258 257 258 258 258 257 257 257 257 257 258 258 258 258 258 258 258 258 258 257 257 258 258 258 258 259 259 259 259 259 259 259 260 261 261 261 261 262 262 262 263 264 264
256 256 256 257 257 257 257 257 258 258 258 258 258 259 259 259 259 259 260 260 260 260 260 260 260 260 260 260 260 260 260 260 260 259 259 258 258 258 257 258 258 258 257 257 258 257 257 257 257 257 257 257 257 257 257 257 257 257 257 257 257 257 257 257 258 258 258 258 258 258 259 259 259 259 259 260 260 261 261 261 262 262 262 263 263
255 255 256 256 256 256 257 257 257 257 257 257 258 258 258 258 259 259 259 259 259 259 259 260 260 260 260 260 260 260 259 260 259 259 259 258 258 257 257 257 257 257 257 257 257 257 256 257 257 256 256 256 256 256 256 256 256 256 256 256 257 257 257 257 257 258 258 258 258 258 258 259 259 259 259 260 260 261 261 261 262 262 262 262 263
255 255 255 255 256 256 256 256 256 256 256 257 257 257 257 257 257 258 258 258 258 258 259 259 259 259 259 259 259 259 259 259 259 259 258 258 257 257 257 257 256 256 256 256 256 256 256 256 256 256 256 256 256 256 256 256 256 256 256 256 257 257 257 257 257 257 257 258 258 258 258 258 259 259 259 260 260 260 261 261 262 262 262 262 263
254 254 254 255 255 255 255 255 255 256 256 256 256 256 256 256 256 257 257 257 257 257 257 258 258 258 258 258 258 258 258 258 258 258 258 258 257 257 257 257 256 256 255 255 255 255 255 255 255 255 255 255 255 255 255 255 255 256 256 256 256 256 257 257 257 257 257 257 258 258 258 258 258 259 259 259 259 260 260 261 261 262 262 262 263
254 254 254 254 254 254 254 255 255 255 255 255 255 256 256 256 256 256 256 256 256 256 256 257 257 257 257 257 257 257 257 257 257 258 257 257 257 257 257 256 256 256 255 255 255 255 255 255 255 255 255 255 255 255 255 255 255 255 255 256 256 256 256 256 257 257 257 257 257 257 257 258 258 258 259 259 259 259 260 260 261 262 262 262 262
Wind_Speed
36 36 35 35 35 35 31 26 25 25 26 25 25 25 26 28 29 27 27 27 25 23 21 19 19 18 18 18 18 18 18 18 18 18 18 19 19 18 17 18 18 18 18 18 18 18 18 18 18 18 16 15 14 13 13 12 12 11 11 11 11 11 11 11 9 9 11 14 17 18 17 15 14 14 15 15 13 10 9 9 9 8 6 6 5
38 38 39 39 38 35 31 27 24 25 26 25 24 25 25 27 29 27 26 25 23 22 21 19 18 18 18 18 18 18 18 18 17 17 18 19 19 18 17 17 18 18 17 18 19 18 18 19 19 19 18 17 16 14 13 13 12 12 12 11 11 11 11 12 11 10 10 12 15 16 15 14 13 12 13 15 14 13 11 8 7 8 7 6 6
39 40 39 38 35 33 31 28 25 25 27 24 23 24 25 26 27 26 26 24 21 20 20 19 18 18 18 18 18 18 18 17 17 18 18 18 19 18 18 18 18 18 18 18 19 19 20 20 21 20 19 19 19 17 15 15 15 14 14 13 12 11 11 12 12 12 11 12 13 15 14 13 13 11 11 15 16 15 12 8 6 7 6 6 6
40 39 38 35 31 30 32 29 24 25 27 24 23 23 23 25 26 25 26 24 21 19 19 18 18 17 17 18 18 18 18 18 17 18 18 18 18 18 18 18 18 18 19 19 19 20 21 21 21 20 19 19 19 18 17 17 17 16 15 14 13 12 12 12 13 13 13 12 12 14 15 13 14 12 10 13 16 14 12 10 8 7 7 6 6
38 37 35 33 29 28 29 28 23 23 26 26 24 22 22 23 24 24 25 24 20 19 18 18 18 18 18 18 18 18 18 18 18 18 18 18 18 18 19 20 20 20 20 20 20 21 22 22 20 19 19 19 18 18 18 18 17 16 15 14 12 12 11 11 12 13 14 14 14 14 15 14 14 13 10 10 14 13 12 11 9 9 8 6 6
37 36 33 30 26 22 23 26 25 23 24 25 24 22 20 21 22 23 24 23 20 19 18 18 18 18 18 18 18 18 18 17 18 18 17 18 19 20 21 21 21 21 20 20 20 20 21 21 19 19 19 19 18 18 18 18 18 17 16 14 13 12 12 11 12 12 13 15 15 14 14 14 13 13 10 8 9 10 12 12 10 9 9 8 8
34 33 32 29 24 19 21 25 27 25 22 23 23 21 20 20 21 21 21 20 20 19 18 18 17 18 18 18 18 18 17 17 17 17 17 19 21 21 21 21 20 21 20 19 19 19 19 18 17 18 19 19 19 18 18 18 18 17 17 16 14 13 12 12 11 12 12 13 14 13 14 13 12 12 11 7 7 9 11 11 9 7 8 8 8
33 33 31 28 24 21 23 27 28 27 22 20 22 20 19 19 19 19 19 19 20 19 19 18 17 17 17 17 17 17 17 17 17 17 18 20 21 21 20 20 19 19 18 18 18 18 18 17 16 17 19 20 20 20 20 18 16 16 16 15 14 14 13 12 11 11 12 12 12 12 12 12 12 12 11 8 7 7 8 9 8 7 7 7 7
34 33 30 26 22 23 27 29 29 28 24 20 20 19 18 18 17 18 18 19 19 19 19 18 17 17 16 16 17 16 16 17 18 18 19 20 21 21 19 19 18 17 17 17 17 17 17 17 18 18 20 20 20 21 21 19 17 15 15 15 14 13 12 12 12 11 11 11 11 11 11 11 11 11 10 9 7 7 9 9 8 8 8 7 6
31 29 26 24 24 27 29 30 29 28 24 22 21 19 18 17 17 18 18 18 18 18 18 18 17 17 16 16 16 16 17 18 19 19 20 20 20 18 16 16 17 16 16 17 17 17 17 19 20 20 21 21 21 22 22 21 20 18 16 16 16 14 12 12 12 11 11 11 10 10 10 10 11 11 11 10 9 9 10 7 6 7 7 6 6
29 27 26 27 28 29 30 31 30 27 24 22 22 20 19 17 17 18 18 17 17 17 17 18 17 17 17 17 16 17 18 19 19 19 19 20 18 17 15 14 15 16 17 17 17 16 17 19 20 20 22 23 23 23 23 23 23 22 19 18 18 16 14 13 13 12 12 11 11 11 10 10 12 12 12 11 10 10 10 8 7 7 6 4 5
29 28 28 28 29 30 31 31 27 24 25 26 25 22 19 18 17 17 18 17 17 17 17 18 18 17 17 17 17 18 19 19 18 18 19 20 20 19 19 18 17 16 16 16 16 15 16 18 19 19 20 22 23 23 23 23 24 24 23 21 21 20 18 16 14 14 14 12 11 11 11 11 11 12 12 12 11 11 11 10 9 8 6 5 5
29 29 30 30 31 32 31 26 22 23 28 29 28 26 22 19 19 19 19 18 17 17 17 17 18 17 17 17 18 18 17 17 17 18 19 20 21 21 22 22 22 20 18 17 17 17 17 17 17 18 18 20 21 22 22 22 22 23 23 23 23 23 22 21 19 17 16 15 14 14 13 12 11 12 14 13 13 12 11 10 9 8 7 6 5
31 31 31 31 31 30 27 24 24 26 29 30 28 28 25 23 22 20 19 17 16 18 17 16 17 17 16 15 15 15 15 16 18 19 20 20 21 21 21 22 23 24 23 21 19 19 19 18 17 17 17 18 19 20 21 20 19 20 21 22 23 23 24 25 25 23 21 19 19 19 18 16 15 15 15 14 14 14 11 11 10 8 9 9 10
31 29 28 27 28 29 28 28 28 28 29 32 30 27 26 25 24 20 18 17 17 18 17 16 17 15 14 14 14 15 18 18 18 20 20 20 21 21 22 21 21 23 25 25 23 21 20 20 18 18 17 17 18 19 19 18 18 19 19 20 20 20 21 23 25 26 26 25 25 24 23 21 20 20 19 17 17 17 15 15 15 14 14 14 13
27 27 27 27 29 31 32 33 33 32 31 33 32 28 25 25 25 21 17 16 17 16 15 15 15 13 13 15 17 18 20 19 18 19 20 20 20 20 21 21 20 21 22 24 25 24 22 21 20 19 18 17 17 18 18 18 19 19 18 19 20 20 21 21 20 21 24 27 28 28 27 24 21 20 20 20 19 18 16 16 17 17 15 12 11
28 28 28 29 32 34 35 35 35 35 34 34 33 29 25 25 24 20 17 16 16 16 14 13 13 12 12 16 19 19 19 18 18 18 19 19 20 19 19 20 19 19 19 20 21 22 21 21 20 19 18 18 17 18 19 20 20 19 17 17 18 19 20 21 20 20 20 23 26 27 26 25 22 20 18 17 18 17 13 12 13 13 12 9 7
30 32 33 35 35 37 37 36 34 34 33 33 31 26 22 22 20 18 17 17 16 15 13 11 11 10 11 16 18 17 16 16 16 17 18 18 19 19 19 18 18 18 19 19 20 20 20 21 22 20 19 18 18 18 19 20 20 19 17 15 15 16 18 19 20 21 21 21 23 23 23 23 23 22 20 18 18 17 15 15 13 12 11 8 7
36 38 39 39 38 36 37 35 33 33 32 32 30 23 17 17 16 15 15 15 15 13 12 11 10 9 10 14 16 16 16 16 15 16 17 18 19 19 18 17 18 18 18 19 20 21 21 22 23 24 22 19 18 19 19 20 20 20 20 17 15 16 19 18 18 20 20 21 22 23 23 24 23 22 22 21 20 20 22 22 17 12 11 10 9
41 39 37 37 36 35 35 33 32 32 32 31 29 22 15 12 12 13 13 12 13 12 12 11 9 9 9 10 12 14 16 16 16 16 17 18 19 19 18 18 18 18 18 18 18 19 20 20 21 24 25 22 20 19 19 19 19 19 21 21 19 19 20 18 17 18 18 19 19 21 22 23 22 23 23 22 21 20 23 26 24 19 15 12 11
38 36 35 35 35 34 34 34 33 33 32 30 26 20 14 11 10 11 10 11 11 11 10 9 8 8 8 8 10 13 15 16 16 16 16 17 19 19 20 19 18 17 17 17 17 17 18 19 19 20 23 23 21 19 19 19 19 19 21 22 22 22 20 17 17 17 17 17 16 17 18 18 18 19 20 20 19 19 20 23 26 26 22 17 14
35 34 34 34 35 34 34 35 33 31 31 28 24 20 15 10 9 9 8 9 10 9 9 7 6 6 7 8 10 12 14 16 17 17 16 17 18 20 20 20 19 18 17 16 17 17 17 17 17 17 18 19 19 18 18 18 18 18 19 20 21 21 19 18 16 15 15 15 13 13 13 13 12 14 15 16 17 18 19 20 21 24 25 24 21
34 34 34 34 35 35 35 35 33 31 29 25 22 19 14 9 9 9 8 7 8 8 8 6 6 6 7 8 10 11 13 15 16 17 17 17 18 20 20 20 19 19 17 16 16 16 14 12 13 14 15 16 17 17 17 18 18 19 20 21 22 22 21 19 17 16 15 15 13 13 12 12 12 13 13 14 15 16 18 19 20 21 22 25 25
34 34 34 35 36 36 35 34 33 31 27 22 18 16 11 9 9 8 7 7 7 7 7 6 6 7 8 9 10 11 12 14 15 15 17 17 17 19 20 19 19 18 17 16 14 13 13 12 11 12 13 14 14 15 17 19 18 17 17 17 16 16 15 13 14 16 15 13 14 15 14 13 14 14 14 14 13 14 15 17 19 21 22 23 24
36 36 36 36 37 36 35 33 31 29 24 18 16 14 10 9 8 6 6 7 7 7 7 7 7 7 8 9 10 10 10 11 12 13 14 16 17 18 19 20 20 19 19 19 17 14 13 13 12 12 13 13 14 14 16 16 12 10 10 9 7 7 6 6 7 9 10 10 11 13 14 15 15 15 15 14 13 12 12 13 16 19 20 21 22
38 38 37 37 37 36 34 31 28 28 23 15 13 13 9 7 7 6 6 7 7 7 7 7 7 8 8 8 9 9 8 9 10 10 11 13 15 16 17 17 16 14 13 13 15 15 13 12 11 11 11 11 11 10 10 10 9 8 8 8 6 5 4 4 4 4 6 9 10 10 10 13 15 16 16 15 13 11 11 11 13 15 17 19 20
38 38 38 37 35 33 31 29 28 28 23 15 12 12 9 6 7 7 7 7 7 7 7 7 7 7 7 7 8 8 8 8 9 8 9 10 10 10 10 9 8 7 5 5 9 11 10 8 7 6 6 6 7 8 8 8 7 6 5 4 4 4 3 4 4 4 5 6 8 8 8 8 10 13 15 15 13 12 12 11 11 11 13 16 17
38 38 37 35 32 30 29 29 28 27 23 17 13 12 10 7 7 8 8 8 7 7 7 7 7 7 7 6 6 7 7 8 8 7 8 9 8 7 6 6 6 7 7 6 7 8 7 6 5 4 5 5 6 7 7 7 7 6 6 5 5 5 5 5 5 7 8 9 9 10 10 9 8 8 10 11 11 12 13 13 12 11 11 13 12
37 36 34 31 30 29 28 28 28 26 22 17 13 11 10 9 8 8 7 7 8 8 7 7 7 7 7 7 7 6 6 6 7 7 7 7 7 7 7 7 7 7 8 8 8 8 7 7 6 6 7 7 7 7 7 6 6 7 7 8 7 6 7 7 8 10 11 11 11 11 11 10 10 10 10 11 12 12 14 15 14 13 13 13 12
35 33 31 29 29 29 28 28 27 25 21 18 15 12 11 10 10 9 8 8 9 10 10 9 8 6 6 8 9 8 6 4 4 6 7 8 9 10 10 9 8 8 8 10 10 9 9 9 8 8 9 9 9 10 9 7 6 4 4 5 7 7 6 7 8 9 9 10 10 10 10 10 11 12 13 13 14 14 14 15 15 14 14 13 12
33 31 30 29 29 29 28 28 27 23 20 18 15 14 12 11 11 12 11 11 11 12 12 13 12 10 9 9 10 11 10 7 4 5 6 7 8 10 11 11 11 11 11 11 9 8 8 8 8 8 8 8 8 7 5 3 3 3 3 4 6 6 6 5 6 6 6 7 8 8 9 10 11 12 14 14 14 14 14 15 16 16 15 14 13
34 32 30 29 29 29 28 27 26 22 20 18 15 13 12 11 10 9 10 12 13 14 12 11 12 12 12 12 12 11 9 7 7 6 6 7 7 8 7 5 5 6 7 8 6 5 6 7 7 7 7 6 5 4 3 2 3 4 3 4 5 5 5 5 7 8 8 7 6 7 8 10 10 10 11 12 13 12 12 13 14 15 16 15 14
34 32 29 29 29 28 27 26 24 22 20 18 16 13 12 11 10 9 8 8 10 12 12 11 10 11 13 14 16 15 12 8 6 6 6 5 5 4 5 9 9 8 7 6 4 3 4 5 4 4 4 4 4 4 4 3 3 3 3 3 4 5 5 6 8 9 8 7 6 6 6 7 7 7 8 9 10 11 11 11 11 11 12 14 15
33 30 29 28 28 27 26 25 24 22 20 18 16 14 12 10 10 10 9 9 7 7 8 8 6 4 6 9 12 16 18 13 6 3 1 3 5 6 8 8 6 4 3 3 2 2 2 3 3 3 3 3 3 4 4 4 3 4 4 4 4 4 4 5 5 4 5 5 5 5 5 5 5 6 6 7 8 9 10 12 12 11 10 10 12
32 28 28 28 27 26 26 25 23 21 20 19 16 14 12 11 9 9 9 8 7 7 6 4 0 4 6 6 5 4 9 10 5 1 4 6 7 6 4 3 1 1 2 2 1 1 1 2 3 3 4 4 3 4 4 4 4 4 4 4 4 3 2 3 3 3 3 4 4 4 5 5 5 6 6 6 6 7 8 10 11 11 10 10 9
31 28 27 27 27 26 25 24 22 20 19 18 15 14 12 10 9 9 8 7 7 7 6 5 3 2 5 8 10 9 4 5 5 6 7 6 4 3 3 3 3 2 2 2 1 1 1 2 2 3 4 4 4 4 4 4 4 4 4 4 4 3 2 2 2 2 3 3 3 4 4 4 5 6 5 5 6 7 8 8 8 8 8 7 6
30 28 27 27 28 27 24 23 22 21 19 17 15 14 12 11 9 9 7 7 7 6 5 5 4 4 3 3 4 6 7 7 7 7 6 4 3 4 5 4 2 1 1 1 1 2 2 2 2 3 3 4 4 3 3 4 3 3 3 3 3 3 3 2 2 3 3 3 3 3 3 4 5 6 6 5 6 7 7 8 7 7 8 7 6
29 28 28 29 28 26 23 22 22 21 19 17 15 14 13 11 10 9 7 7 6 6 5 4 3 3 3 2 2 2 3 4 3 2 3 3 4 6 6 4 2 2 2 2 2 3 3 3 2 3 3 3 3 3 3 3 3 3 3 3 3 3 2 2 1 2 2 2 2 2 3 3 4 4 5 5 6 6 6 6 6 6 6 6 6
30 29 28 29 27 25 23 22 21 20 19 18 16 15 14 12 11 9 8 7 7 6 5 3 3 2 2 2 4 5 4 3 3 3 3 3 4 5 4 3 3 3 3 3 3 3 3 3 2 3 3 2 3 2 2 2 2 2 3 3 3 3 2 2 2 1 1 1 1 1 2 2 3 3 4 5 6 6 5 5 5 5 5 6 6
30 28 28 28 26 25 23 21 20 20 19 18 18 16 15 14 12 11 9 8 7 6 5 4 3 2 2 3 4 3 2 3 3 1 1 2 2 3 2 2 3 3 3 3 3 3 3 3 3 3 2 2 2 2 2 2 2 1 2 2 2 2 3 2 2 1 1 0 1 1 1 1 2 2 4 4 5 5 5 5 5 5 5 5 5
29 27 27 27 26 25 23 21 20 21 20 18 18 17 15 14 13 12 10 9 8 7 6 5 4 3 3 4 3 2 2 1 1 1 1 0 0 0 2 3 3 3 3 3 3 3 3 3 3 2 2 2 2 2 2 2 2 2 2 2 2 2 2 2 2 1 1 1 1 1 1 1 1 2 3 4 4 4 4 5 5 5 5 5 5
27 26 26 26 25 25 23 22 21 21 19 18 18 16 15 15 14 12 11 10 9 8 7 6 5 3 3 4 4 1 2 2 2 1 1 1 1 2 2 2 2 2 3 3 3 3 2 2 2 2 2 2 2 2 2 2 2 2 2 2 2 2 2 2 1 1 2 2 1 1 1 0 1 2 3 3 3 4 4 4 4 4 4 4 4
27 26 25 24 24 24 22 22 22 21 20 19 18 17 16 15 14 13 12 10 9 9 8 7 6 4 4 5 5 3 2 2 2 2 2 2 2 2 2 1 1 2 2 3 3 4 3 3 2 2 3 3 3 3 3 2 2 2 2 2 1 2 2 2 1 1 2 2 1 2 2 2 2 2 2 3 3 4 4 4 4 4 4 4 4
26 26 25 24 24 23 22 22 22 21 21 20 19 17 17 15 14 13 12 11 10 9 8 7 7 6 4 4 4 3 2 2 2 3 2 2 1 1 1 1 1 2 3 3 4 4 4 4 4 3 4 3 4 4 4 3 3 3 2 2 2 1 1 1 1 2 2 2 2 2 3 4 3 2 3 3 3 3 4 4 4 4 4 4 4
25 26 25 24 24 23 23 23 22 22 21 20 19 18 17 16 15 14 13 12 11 10 9 8 7 6 5 4 3 2 2 2 2 1 1 2 1 1 2 2 3 3 3 4 4 4 5 5 4 4 4 3 4 4 4 3 3 3 2 2 2 1 0 0 1 1 2 3 3 3 3 3 3 3 4 4 3 3 4 4 4 4 4 4 4
24 23 23 23 23 23 23 23 22 22 21 20 19 19 18 17 16 15 14 13 12 11 10 9 8 7 6 5 3 2 1 0 1 1 0 1 2 2 3 4 4 4 4 4 5 4 5 5 5 4 4 4 4 4 3 3 3 2 2 1 1 1 1 1 1 1 2 2 3 3 3 4 3 4 5 5 4 3 4 5 4 4 5 5 4
23 22 22 22 22 22 22 22 22 22 21 20 20 19 18 18 17 16 15 15 14 12 11 10 9 8 7 5 4 3 2 2 1 1 1 2 3 3 4 5 5 4 5 5 5 5 5 5 5 5 5 5 5 4 4 4 3 3 3 3 3 3 2 2 2 2 2 2 3 3 4 4 4 4 5 5 5 5 4 5 5 4 5 5 5
24 23 22 22 21 21 21 21 21 21 20 20 20 19 18 18 18 16 16 16 15 13 13 12 10 9 8 7 5 4 3 2 2 1 2 3 4 5 5 5 4 4 5 5 6 6 6 6 6 6 6 6 5 5 5 5 5 5 5 5 5 5 4 4 4 3 3 3 3 3 4 4 5 5 5 5 5 5 5 5 5 4 4 5 4
24 23 23 22 22 21 21 21 21 20 20 20 20 19 19 19 18 17 17 17 16 15 14 13 12 11 10 9 7 6 5 4 4 2 1 2 3 5 6 5 4 4 5 5 6 6 7 7 7 7 7 7 7 7 7 7 7 7 7 7 6 6 6 6 5 4 4 4 3 3 4 4 5 5 5 5 5 5 5 6 6 5 5 5 4
23 23 22 22 21 21 21 21 20 20 20 20 19 19 19 18 18 17 18 17 16 16 15 15 14 13 11 10 10 8 7 6 5 4 3 2 3 5 6 6 6 5 5 5 6 7 7 7 7 7 7 8 8 8 8 8 8 8 8 8 7 6 6 6 6 5 5 4 4 4 4 4 5 5 5 5 5 6 6 6 6 6 5 5 5
21 21 22 21 21 21 21 20 20 20 20 20 19 19 18 18 17 17 17 17 16 16 16 15 15 14 12 12 11 10 9 8 7 5 5 4 4 6 7 7 7 7 6 6 7 7 7 7 7 7 7 8 8 9 9 9 9 9 8 8 7 7 7 7 6 6 6 6 5 5 5 5 5 5 5 4 4 5 6 6 6 6 6 5 5
Wind_Direction
316 314 313 309 309 310 309 306 309 311 306 293 277 268 260 250 245 243 239 233 224 215 210 207 207 208 211 215 218 220 219 218 218 219 222 223 222 223 223 223 224 226 227 226 224 222 221 221 221 221 221 222 224 226 229 233 238 241 244 248 248 250 254 256 262 274 274 274 281 287 291 295 299 305 311 322 337 336 325 331 342 343 343 346 347
315 313 311 309 307 306 306 306 311 314 310 298 280 266 257 252 248 243 237 230 220 211 208 206 206 206 211 217 219 221 220 218 219 220 221 223 222 222 223 224 226 227 227 228 225 222 221 222 223 223 221 222 224 225 227 228 231 236 239 242 247 248 251 258 263 271 276 274 276 283 286 286 289 299 307 309 322 336 326 314 332 338 334 344 350
313 311 309 308 306 302 302 305 311 318 314 299 280 268 260 255 249 241 235 227 214 210 208 205 206 207 211 216 218 220 221 219 220 221 222 223 222 223 225 224 226 228 229 231 228 224 223 224 223 221 219 221 224 226 229 230 232 236 240 241 246 251 252 256 260 264 273 275 274 280 284 284 285 294 308 302 305 327 332 310 310 317 315 335 342
312 312 309 308 306 302 304 307 313 321 319 302 282 271 263 257 249 240 234 225 212 207 208 206 208 209 212 216 218 220 221 220 221 221 222 224 224 225 227 226 227 229 231 233 230 228 226 224 220 217 216 217 219 222 225 228 230 232 236 238 241 247 249 251 255 260 268 273 272 276 280 284 285 289 307 304 298 314 322 301 291 284 284 316 329
314 314 312 311 309 304 307 311 315 324 324 312 292 277 264 255 248 239 233 225 213 207 208 206 208 211 213 217 219 221 222 221 221 221 222 225 227 228 231 231 232 234 235 234 232 230 226 223 219 215 212 212 214 217 220 222 224 226 229 232 233 238 242 246 252 257 262 267 270 274 277 282 285 284 296 304 299 310 317 299 281 273 275 290 297
314 314 315 315 311 308 312 313 314 322 325 319 304 284 266 254 245 237 231 223 212 207 206 205 207 211 214 217 220 222 223 222 221 222 223 227 231 233 235 236 236 236 236 234 231 228 225 221 218 214 212 211 210 212 215 217 220 222 225 228 230 234 238 241 248 255 260 266 269 272 273 276 281 279 279 288 291 301 313 309 287 270 268 267 269
315 316 318 318 312 312 316 312 311 315 320 322 312 289 266 255 244 234 227 218 209 207 206 205 207 211 214 218 220 221 222 222 223 223 225 230 233 235 236 236 237 236 235 233 229 226 225 222 218 215 213 212 210 209 210 211 216 221 224 227 229 232 237 239 243 250 257 264 268 270 270 270 275 276 270 267 270 279 296 307 299 277 264 257 255
319 320 320 317 315 316 314 311 311 313 314 319 316 294 267 252 240 229 222 216 211 210 208 207 208 210 214 217 219 221 222 221 223 225 228 230 232 234 234 235 235 234 232 231 227 226 227 224 220 218 216 215 214 211 209 206 208 216 221 223 224 227 233 237 241 246 252 260 264 265 267 268 270 274 268 259 262 271 276 280 281 275 264 251 245
322 324 324 323 322 319 313 311 311 312 314 316 313 297 270 251 239 229 223 218 215 213 209 208 208 210 213 216 218 219 221 222 224 225 226 228 229 231 233 231 232 231 230 230 229 227 226 225 222 219 217 217 216 216 216 213 209 212 216 219 220 222 226 233 238 242 248 256 261 262 263 264 264 268 263 253 248 250 257 268 280 276 267 261 254
328 332 334 329 322 315 311 311 309 310 316 318 311 295 273 251 238 231 226 220 215 211 208 206 208 210 213 215 216 217 224 228 227 224 222 223 224 225 226 228 229 230 231 231 231 228 226 226 225 223 223 223 223 223 224 222 219 219 219 220 221 219 219 227 234 238 243 249 255 258 260 258 257 260 260 256 249 243 248 269 294 282 270 269 265
333 333 329 323 318 315 313 313 311 309 313 318 312 294 272 253 240 231 226 221 214 209 208 207 209 211 211 213 215 219 226 228 224 223 222 221 219 216 217 225 230 232 233 231 231 231 228 226 225 226 227 228 227 227 227 225 224 224 222 222 224 222 219 221 227 233 239 245 250 252 254 255 255 257 261 263 257 246 245 252 265 271 274 277 273
330 325 322 320 320 318 314 314 316 317 315 316 315 302 276 251 239 230 223 219 213 209 209 210 210 211 210 214 220 223 226 225 222 222 223 225 223 219 218 222 225 228 231 231 233 233 230 228 226 226 227 228 227 226 225 225 227 228 228 227 226 225 221 219 222 226 228 234 242 245 245 250 253 254 257 261 260 253 248 247 250 261 268 268 269
323 321 319 319 317 316 316 318 325 327 321 315 314 310 289 255 241 235 227 220 214 211 211 211 214 214 213 216 222 223 223 223 223 224 226 228 229 227 226 224 221 221 225 229 233 234 232 230 227 225 225 226 225 224 225 226 229 233 235 235 233 230 226 222 223 226 227 228 232 237 238 238 242 248 251 256 265 269 266 259 256 261 267 270 281
319 318 318 319 320 322 327 330 327 323 322 317 311 308 295 269 252 242 230 219 215 213 213 213 217 218 215 215 218 221 222 223 225 228 231 232 233 234 235 232 226 223 225 229 233 234 234 231 227 226 223 219 218 221 223 225 229 235 238 237 235 233 231 229 227 228 229 229 233 241 245 241 238 243 247 250 258 265 267 268 271 281 290 290 293
319 321 325 330 334 335 334 329 321 316 319 317 308 301 293 275 257 242 227 218 217 218 217 218 219 217 214 215 216 221 226 227 228 233 235 237 237 238 240 239 233 227 227 231 234 235 234 232 230 229 225 217 214 214 217 222 227 231 234 234 232 230 231 232 231 231 231 232 237 245 252 251 248 249 252 252 253 256 257 261 268 278 285 286 287
326 333 336 337 336 333 327 321 315 311 312 313 306 295 287 274 257 241 226 218 219 222 221 220 219 214 214 218 220 227 233 233 233 236 238 238 239 239 240 241 238 231 229 230 231 232 232 230 228 226 223 220 214 210 214 221 223 223 224 227 228 227 229 230 231 233 234 235 240 247 252 254 253 253 253 251 251 255 258 260 263 264 267 271 272
336 337 335 331 327 324 319 314 311 307 306 308 304 293 283 274 258 237 222 216 219 222 219 215 215 212 213 220 224 230 237 237 236 239 241 240 239 238 237 237 237 235 232 230 229 229 229 226 224 224 224 222 218 215 214 216 217 217 218 220 223 227 233 234 233 234 236 239 243 246 248 249 247 246 249 246 243 245 250 255 254 248 246 250 256
336 332 327 323 320 317 314 310 307 306 305 305 304 294 281 274 257 229 217 218 218 218 215 211 214 213 214 223 227 231 239 241 240 241 242 241 238 236 235 233 233 234 233 233 232 231 231 229 225 225 226 223 221 221 217 211 209 212 215 216 219 227 237 240 238 237 238 241 246 248 248 248 245 243 243 241 238 233 231 239 246 242 241 244 251
330 324 320 318 315 314 312 309 307 308 307 306 305 297 281 271 252 224 217 218 215 214 212 210 214 214 216 226 231 234 241 245 244 243 244 242 237 233 231 229 229 230 229 230 230 230 232 232 227 225 226 224 222 221 218 213 210 214 219 218 216 231 244 247 245 244 242 242 246 249 250 251 251 248 246 244 241 233 227 231 235 236 238 239 239
325 321 318 317 316 315 314 312 309 310 309 307 306 299 283 264 240 219 215 214 211 211 210 209 214 215 217 226 231 235 242 248 250 248 245 242 236 229 225 224 225 226 226 226 227 226 227 228 228 225 222 222 222 221 218 216 214 218 222 217 219 237 248 249 247 247 247 248 251 252 253 253 251 251 251 249 247 241 234 232 231 230 230 233 235
323 321 320 318 317 316 315 312 311 311 308 307 306 300 285 260 232 214 208 209 209 208 208 208 211 215 222 230 236 242 248 252 256 254 247 241 235 227 222 220 221 223 224 225 225 226 225 223 222 221 219 220 221 219 218 220 221 225 227 226 233 243 243 239 242 242 241 246 252 253 256 255 249 246 246 245 244 242 238 235 233 231 230 231 235
321 321 319 317 315 315 312 311 311 310 308 307 306 300 286 254 223 212 205 203 204 204 204 205 208 220 232 239 244 250 252 254 256 255 249 242 235 228 223 219 219 221 224 224 224 226 224 217 212 215 216 216 218 218 222 226 230 237 242 244 249 250 239 230 230 228 225 229 231 234 239 237 233 234 233 232 235 236 235 233 233 233 234 235 235
321 320 318 317 315 313 311 311 311 308 306 307 305 299 284 245 219 214 206 199 199 201 204 207 217 233 244 249 252 253 254 257 258 255 250 244 238 232 226 222 220 222 225 230 228 224 219 211 209 213 212 212 217 222 228 234 240 247 252 253 255 255 248 236 227 221 217 211 206 214 225 226 224 225 224 225 228 231 231 231 229 229 232 236 237
322 321 319 317 315 313 312 312 310 307 306 308 306 295 270 236 224 216 205 204 201 202 209 211 219 236 247 254 260 258 255 257 258 255 248 242 237 233 228 224 222 221 224 231 231 226 220 216 215 214 211 215 223 229 235 241 243 243 244 245 248 251 248 238 230 228 224 210 201 206 214 220 224 223 223 224 224 229 234 234 231 229 228 232 236
323 322 320 317 314 313 312 312 311 310 309 309 307 293 262 232 229 217 204 213 213 212 218 217 220 237 247 257 265 266 258 253 253 251 244 239 235 231 226 225 226 225 227 229 226 222 220 219 216 219 222 226 231 236 239 237 227 214 216 224 230 233 227 219 222 230 233 233 229 219 213 216 221 223 224 223 219 220 225 228 230 230 229 230 234
324 322 319 316 314 313 313 313 314 314 310 305 300 291 267 236 231 222 211 219 221 220 225 227 232 241 249 259 266 267 261 252 249 247 240 233 230 227 223 224 228 230 234 229 216 211 215 220 223 225 226 225 225 223 216 203 192 197 216 229 231 218 203 201 211 221 231 243 251 248 234 224 221 219 217 215 211 208 206 212 222 227 227 228 231
324 322 319 317 314 314 315 316 316 316 312 306 299 290 272 243 233 230 223 221 222 223 226 229 236 242 248 258 262 260 258 250 242 237 227 221 222 222 219 222 224 226 235 223 205 204 210 214 208 193 175 179 196 201 199 198 201 202 207 219 227 220 208 206 216 229 237 240 248 260 266 254 232 217 208 202 199 200 201 203 208 213 218 222 225
324 320 319 317 316 317 317 317 317 316 313 307 301 292 276 255 240 235 232 227 225 227 228 231 238 243 247 254 256 254 249 240 232 223 211 209 217 220 217 222 226 225 229 225 212 208 207 192 171 165 169 179 197 211 221 232 238 231 228 244 257 254 249 241 234 238 244 247 248 253 260 265 260 240 221 209 205 208 211 211 208 206 204 202 205
324 321 320 319 319 319 319 318 317 317 314 308 301 290 278 267 256 248 242 234 231 233 235 238 241 243 245 248 247 242 236 226 222 218 210 212 226 232 230 231 229 226 226 222 210 200 202 203 202 212 220 219 216 216 218 222 227 235 248 258 259 251 247 244 241 241 243 244 246 244 240 239 241 244 244 242 240 233 221 212 208 208 204 196 196
325 323 323 323 322 321 320 320 318 318 317 313 307 298 286 272 262 255 249 242 241 242 243 243 241 240 245 249 249 251 256 251 221 216 226 236 239 239 238 230 221 216 216 215 209 199 200 210 218 224 228 228 226 227 224 216 209 206 223 246 248 242 237 236 236 239 241 240 242 243 243 242 243 245 245 246 247 239 225 214 209 206 208 206 203
326 325 324 323 322 322 322 321 320 320 319 315 310 305 300 291 276 263 254 249 249 251 252 250 247 243 242 248 257 262 268 278 267 234 236 241 237 236 237 232 228 226 217 207 200 191 192 207 218 222 227 230 228 228 224 215 211 204 205 237 246 238 226 223 223 220 222 230 236 240 242 244 245 244 241 237 236 233 230 228 219 205 205 210 207
325 323 323 322 323 324 324 323 323 323 323 320 315 309 307 307 302 288 270 257 252 254 259 259 253 247 242 244 251 253 255 265 268 257 253 255 249 242 232 207 193 198 188 177 170 168 185 211 222 216 216 219 217 215 214 213 225 224 214 219 222 210 197 203 211 207 207 218 227 229 230 230 231 235 236 233 231 233 236 238 226 206 199 203 205
325 322 322 324 326 326 326 326 326 327 326 324 321 317 313 311 314 317 314 294 269 260 261 259 252 248 246 242 241 240 241 251 270 272 263 250 232 193 130 112 108 109 115 126 148 176 190 207 215 204 201 203 201 205 210 210 209 204 191 185 187 190 199 214 219 215 212 217 222 220 220 222 224 232 237 233 233 236 242 249 246 228 208 200 200
325 323 324 327 328 327 327 328 328 329 330 327 323 321 319 317 317 318 321 324 314 293 277 263 248 254 263 253 246 243 238 234 247 283 221 123 109 98 90 91 98 100 98 106 133 177 191 186 174 172 184 191 191 192 195 197 193 186 184 182 179 188 213 224 218 210 210 214 219 219 220 221 223 229 235 235 232 233 237 243 249 248 237 220 209
326 326 328 331 331 329 328 329 329 330 332 330 327 324 321 321 321 317 315 320 323 321 308 282 233 54 38 35 20 301 236 213 200 139 117 104 82 63 48 29 344 322 337 343 7 126 156 155 152 169 184 188 189 187 185 186 188 181 175 173 173 177 196 201 192 196 207 210 213 217 220 225 225 226 232 236 234 234 238 240 243 247 249 247 239
329 330 331 333 333 331 329 330 331 332 330 327 326 325 323 322 321 318 316 316 312 312 316 304 290 356 43 57 50 41 62 120 104 89 97 94 61 30 20 345 306 310 353 355 4 130 134 137 154 179 189 188 186 182 176 176 179 176 167 161 162 162 160 163 182 202 207 204 213 220 222 227 225 222 225 234 235 237 243 250 255 258 257 255 261
331 332 331 333 334 332 330 331 332 332 331 329 328 329 327 325 324 319 313 315 311 306 318 324 308 301 324 23 46 45 54 65 70 75 79 67 22 19 27 18 349 17 73 85 104 129 142 153 168 178 179 177 172 168 167 168 168 164 157 148 145 147 143 150 189 205 201 196 210 223 226 232 233 228 226 230 235 235 237 243 253 260 261 262 264
331 331 331 333 334 334 333 333 334 335 336 334 333 334 331 328 328 324 317 317 318 310 310 321 305 285 296 318 308 305 341 7 12 356 343 353 15 25 26 35 61 80 104 119 119 128 140 147 154 158 157 157 154 151 152 155 150 145 144 140 137 138 136 141 178 199 189 183 201 223 230 238 243 239 234 235 239 240 240 243 250 254 255 259 257
333 332 333 335 337 337 336 335 335 338 339 337 336 335 334 332 332 330 325 321 320 319 319 317 296 279 282 297 292 287 291 297 296 308 327 339 359 10 19 53 89 97 115 122 119 127 139 140 141 144 139 134 135 131 129 132 134 136 137 132 130 132 127 124 125 107 113 191 217 229 227 232 243 243 241 242 243 244 246 249 252 256 257 255 254
332 331 333 336 338 338 338 338 337 337 337 337 337 336 336 335 333 331 330 328 323 322 322 320 319 328 325 299 288 282 261 251 255 286 25 357 335 350 31 92 114 121 127 126 122 128 132 129 128 130 123 119 116 112 112 115 100 99 116 118 119 122 117 110 111 109 107 227 300 299 260 255 261 255 253 254 251 250 256 255 252 257 262 259 262
330 331 333 335 337 339 339 339 340 339 337 336 337 336 336 335 333 331 331 331 328 325 323 320 327 341 338 317 296 254 198 202 221 113 104 111 317 92 124 131 129 124 123 121 121 123 123 125 127 123 117 120 114 107 116 111 84 77 93 93 94 103 101 92 99 126 128 99 15 336 290 269 276 272 268 269 264 264 266 262 260 264 264 262 268
330 332 334 336 338 340 340 339 339 339 338 337 336 335 334 333 333 333 333 332 331 331 326 323 328 336 327 322 323 330 134 118 75 68 104 118 120 139 149 144 130 126 128 132 136 134 127 125 121 113 115 126 122 111 105 90 77 78 77 69 79 90 85 76 76 95 97 79 16 337 349 14 320 298 292 288 287 286 277 266 265 267 264 266 269
332 334 335 336 338 339 340 340 339 339 339 338 336 335 335 334 333 335 335 335 335 335 331 329 335 342 330 322 332 3 67 75 48 55 81 92 95 107 115 119 147 172 177 172 171 168 160 147 142 155 168 170 162 151 141 130 116 102 73 60 75 81 76 79 74 66 71 66 9 353 10 14 1 335 318 308 304 301 292 282 278 273 265 267 269
334 336 336 337 338 339 339 340 341 340 339 337 337 337 338 338 338 339 338 338 338 337 336 336 338 341 341 339 346 11 49 66 71 74 70 56 62 97 109 158 216 218 215 211 209 198 181 173 179 191 195 193 185 176 172 167 153 140 120 102 91 68 71 88 74 56 59 54 44 32 10 354 350 348 332 319 315 315 308 298 292 287 277 268 261
336 337 337 338 339 339 339 341 342 341 340 340 340 341 340 341 342 341 340 341 342 339 338 341 342 339 340 347 359 21 59 86 91 71 36 17 359 293 258 251 242 232 222 224 231 222 201 194 201 204 200 201 199 192 190 186 176 169 164 152 133 112 130 66 36 40 41 37 42 43 14 353 353 346 331 323 321 317 310 305 297 293 291 285 268
336 337 337 338 338 338 340 341 341 342 344 344 343 342 342 342 342 341 341 342 342 339 338 341 343 341 339 340 344 354 10 14 358 11 25 349 311 281 269 261 251 240 232 234 240 234 215 207 208 205 205 211 213 208 207 208 206 210 213 199 190 214 245 295 356 10 13 18 27 29 13 4 356 338 332 338 349 334 313 311 313 301 293 297 291
337 337 337 339 339 338 340 341 341 342 345 345 345 345 344 343 342 342 343 343 342 341 341 341 341 342 342 340 339 340 334 324 334 340 308 307 298 278 268 267 261 254 249 247 247 240 231 227 223 218 220 225 225 222 224 230 237 247 259 263 267 274 280 298 318 330 337 346 358 5 1 358 355 344 336 338 343 335 320 320 325 312 298 299 297
338 338 338 340 340 340 341 342 342 343 344 345 345 346 346 346 345 345 345 345 344 343 344 343 342 343 343 340 339 338 331 321 317 307 304 307 300 291 287 280 269 263 265 263 257 250 244 241 238 234 235 239 239 237 237 241 246 256 262 264 269 277 281 285 291 297 306 315 326 341 349 350 349 344 332 326 330 333 329 326 327 319 308 304 297
338 338 339 339 341 342 342 341 342 342 343 344 344 345 347 348 348 348 348 347 346 346 346 345 344 344 343 343 343 339 332 323 315 300 287 290 292 297 302 297 281 273 274 274 272 267 258 253 251 247 246 247 248 248 248 248 250 254 257 259 264 270 274 276 280 283 286 292 301 318 332 337 339 337 332 327 329 329 324 325 330 329 322 312 300
336 337 338 338 339 340 340 341 341 342 342 343 343 344 346 347 347 348 348 348 347 347 347 345 344 344 344 344 345 344 340 335 328 316 307 298 282 287 295 297 294 289 282 280 284 283 276 269 264 257 253 253 253 253 254 255 254 254 255 257 262 264 265 266 269 269 273 279 286 295 307 317 323 327 327 326 325 323 320 322 327 329 325 317 304
333 334 336 337 338 338 339 340 341 341 342 343 343 342 344 345 345 346 347 347 346 347 347 346 345 345 346 346 347 347 345 343 339 333 328 317 298 291 294 295 295 292 287 286 290 292 290 286 278 270 266 263 261 260 260 259 258 258 259 259 260 259 258 259 260 261 266 274 277 281 290 297 305 316 322 320 314 312 312 314 320 326 328 323 312